EW8832 Weather Reports


Display with metric or nautical units.
time (UTC)temp
F
wind
direction
speed
MPH
gust
MPH
rain 1hr
in
rain 24hr
in
rain mn
in
humidity
%
barometer
mb
20260905204544 98 93 4.0 8.0 0.00 0.00 0.00 36 1008.5
20260905204035 99 78 4.0 8.0 0.00 0.00 0.00 35 1008.6
20260905203634 100 26 3.0 9.0 0.00 0.00 0.00 34 1008.8
20260905203040 100 20 4.0 11.0 0.00 0.00 0.00 34 1008.8
20260905202534 100 28 4.0 11.0 0.00 0.00 0.00 34 1008.9
20260905202034 100 34 4.0 14.0 0.00 0.00 0.00 34 1008.9
20260905201534 100 175 5.0 14.0 0.00 0.00 0.00 34 1008.9
20260905201032 100 115 4.0 7.0 0.00 0.00 0.00 34 1009.0
20260905200531 99 314 1.0 8.0 0.00 0.00 0.00 35 1009.1
20260905200035 99 71 3.0 8.0 0.00 0.00 0.00 35 1009.2
20260905195532 98 259 2.0 9.0 0.00 0.00 0.00 35 1009.3
20260905195029 98 168 3.0 11.0 0.00 0.00 0.00 35 1009.4
20260905194529 99 210 4.0 11.0 0.00 0.00 0.00 36 1009.4
20260905194028 99 108 5.0 10.0 0.00 0.00 0.00 35 1009.5
20260905193630 98 65 2.0 7.0 0.00 0.00 0.00 37 1009.6
20260905193026 98 85 3.0 10.0 0.00 0.00 0.00 37 1009.7
20260905192525 98 102 4.0 10.0 0.00 0.00 0.00 37 1009.7
20260905192025 99 45 6.0 10.0 0.00 0.00 0.00 36 1009.8
20260905191523 99 314 2.0 8.0 0.00 0.00 0.00 36 1010.0
20260905191023 98 346 3.0 10.0 0.00 0.00 0.00 37 1010.0
20260905190521 98 5 2.0 10.0 0.00 0.00 0.00 37 1010.1
20260905190022 97 39 2.0 8.0 0.00 0.00 0.00 38 1010.1
20260905185519 97 49 4.0 12.0 0.00 0.00 0.00 38 1010.2
20260905185019 97 82 7.0 12.0 0.00 0.00 0.00 38 1010.3
20260905184531 97 257 1.0 7.0 0.00 0.00 0.00 39 1010.4
20260905184019 97 66 4.0 11.0 0.00 0.00 0.00 40 1010.5
20260905183619 97 46 8.0 12.0 0.00 0.00 0.00 39 1010.5
20260905183019 97 86 7.0 12.0 0.00 0.00 0.00 40 1010.5
20260905182522 96 29 3.0 10.0 0.00 0.00 0.00 41 1010.6
20260905182021 96 68 6.0 10.0 0.00 0.00 0.00 40 1010.7
20260905181515 96 107 2.0 8.0 0.00 0.00 0.00 41 1010.7
20260905181017 96 121 2.0 8.0 0.00 0.00 0.00 41 1010.8
20260905180516 96 134 3.0 8.0 0.00 0.00 0.00 41 1010.9
20260905180017 96 125 2.0 9.0 0.00 0.00 0.00 41 1011.0
20260905175516 96 92 4.0 9.0 0.00 0.00 0.00 41 1011.0
20260905175014 95 180 4.0 8.0 0.00 0.00 0.00 42 1011.1
20260905174513 95 105 5.0 10.0 0.00 0.00 0.00 42 1011.2
20260905174013 95 171 3.0 10.0 0.00 0.00 0.00 42 1011.3
20260905173613 95 122 3.0 8.0 0.00 0.00 0.00 42 1011.4
20260905173013 95 115 5.0 11.0 0.00 0.00 0.00 43 1011.4
20260905172513 94 130 3.0 11.0 0.00 0.00 0.00 43 1011.5
20260905172013 95 134 6.0 9.0 0.00 0.00 0.00 42 1011.5
20260905171515 95 66 4.0 8.0 0.00 0.00 0.00 44 1011.6
20260905171012 94 251 1.0 5.0 0.00 0.00 0.00 44 1011.6
20260905170512 94 5 0.0 5.0 0.00 0.00 0.00 45 1011.7
20260905170012 94 50 1.0 5.0 0.00 0.00 0.00 44 1011.7
20260905165511 95 35 2.0 5.0 0.00 0.00 0.00 43 1011.7
20260905165013 95 262 1.0 8.0 0.00 0.00 0.00 43 1011.8
20260905164512 95 282 5.0 8.0 0.00 0.00 0.00 43 1011.9
20260905164013 95 283 3.0 8.0 0.00 0.00 0.00 44 1011.9
20260905163609 94 227 1.0 6.0 0.00 0.00 0.00 45 1012.0
20260905163009 94 317 3.0 10.0 0.00 0.00 0.00 45 1011.9
20260905162508 94 9 2.0 10.0 0.00 0.00 0.00 46 1011.9
20260905162005 93 292 0.0 3.0 0.00 0.00 0.00 46 1012.0
20260905161504 92 293 0.0 8.0 0.00 0.00 0.00 48 1012.0
20260905161006 92 296 2.0 8.0 0.00 0.00 0.00 48 1012.0
20260905160504 92 264 3.0 8.0 0.00 0.00 0.00 49 1012.0
20260905160004 91 276 4.0 9.0 0.00 0.00 0.00 49 1012.0
20260905155504 92 269 4.0 9.0 0.00 0.00 0.00 48 1012.0
20260905155003 92 270 4.0 11.0 0.00 0.00 0.00 49 1012.0
20260905154502 92 259 2.0 11.0 0.00 0.00 0.00 50 1012.0
20260905154103 92 277 4.0 8.0 0.00 0.00 0.00 49 1012.1
20260905153559 91 294 5.0 9.0 0.00 0.00 0.00 50 1012.0
20260905153059 91 292 6.0 9.0 0.00 0.00 0.00 50 1012.0
20260905152558 91 263 3.0 8.0 0.00 0.00 0.00 51 1012.0
20260905152059 91 303 3.0 8.0 0.00 0.00 0.00 51 1012.0
20260905151602 91 249 1.0 5.0 0.00 0.00 0.00 52 1011.9
20260905151056 90 205 1.0 5.0 0.00 0.00 0.00 52 1011.9
20260905150554 90 255 3.0 5.0 0.00 0.00 0.00 52 1011.8
20260905150054 90 252 0.0 4.0 0.00 0.00 0.00 54 1011.9
20260905145552 90 259 1.0 4.0 0.00 0.00 0.00 53 1011.8
20260905145051 89 252 0.0 5.0 0.00 0.00 0.00 54 1011.8
20260905144550 89 252 1.0 5.0 0.00 0.00 0.00 55 1011.7
20260905144051 88 238 1.0 6.0 0.00 0.00 0.00 55 1011.7
20260905143550 88 227 1.0 4.0 0.00 0.00 0.00 57 1011.7
20260905143047 88 226 1.0 4.0 0.00 0.00 0.00 57 1011.7
20260905142545 87 194 0.0 3.0 0.00 0.00 0.00 59 1011.7
20260905142045 86 190 1.0 7.0 0.00 0.00 0.00 59 1011.7
20260905141543 86 182 2.0 7.0 0.00 0.00 0.00 61 1011.7
20260905141042 85 169 2.0 4.0 0.00 0.00 0.00 62 1011.8
20260905140540 84 168 3.0 6.0 0.00 0.00 0.00 63 1011.8
20260905140038 84 162 3.0 6.0 0.00 0.00 0.00 64 1011.7
20260905135538 83 157 3.0 6.0 0.00 0.00 0.00 65 1011.7
20260905135036 83 159 2.0 5.0 0.00 0.00 0.00 67 1011.8
20260905134538 82 182 1.0 4.0 0.00 0.00 0.00 67 1011.8
20260905134033 82 188 1.0 3.0 0.00 0.00 0.00 68 1011.7
20260905133534 81 188 2.0 4.0 0.00 0.00 0.00 70 1011.8
20260905133033 81 188 2.0 4.0 0.00 0.00 0.00 70 1011.8
20260905132534 81 191 1.0 3.0 0.00 0.00 0.00 70 1011.7
20260905132035 80 191 2.0 3.0 0.00 0.00 0.00 71 1011.7
20260905131533 80 192 0.0 2.0 0.00 0.00 0.00 73 1011.7
20260905131033 79 192 0.0 2.0 0.00 0.00 0.00 73 1011.7
20260905130534 79 192 0.0 2.0 0.00 0.00 0.00 74 1011.6
20260905130033 78 192 0.0 1.0 0.00 0.00 0.00 75 1011.6
20260905125532 77 192 0.0 1.0 0.00 0.00 0.00 76 1011.6
20260905125031 77 192 0.0 0.0 0.00 0.00 0.00 79 1011.6
20260905124531 76 192 0.0 2.0 0.00 0.00 0.00 80 1011.5
20260905124030 75 192 0.0 2.0 0.00 0.00 0.00 80 1011.4
20260905123530 74 192 0.0 0.0 0.00 0.00 0.00 82 1011.3
20260905123030 74 192 0.0 0.0 0.00 0.00 0.00 83 1011.3
20260905122533 74 192 0.0 1.0 0.00 0.00 0.00 83 1011.4
20260905122030 73 192 0.0 1.0 0.00 0.00 0.00 83 1011.4
20260905121529 73 192 0.0 0.0 0.00 0.00 0.00 83 1011.3
20260905121029 73 192 0.0 0.0 0.00 0.00 0.00 83 1011.3
20260905120528 73 192 0.0 0.0 0.00 0.00 0.00 83 1011.2
20260905120028 73 192 0.0 0.0 0.00 0.00 0.00 82 1011.1
20260905115528 73 192 0.0 0.0 0.00 0.00 0.00 82 1011.1
20260905115026 74 192 0.0 0.0 0.00 0.00 0.00 82 1011.1
20260905114525 74 192 0.0 0.0 0.00 0.00 0.00 82 1011.0
20260905114024 74 192 0.0 0.0 0.00 0.00 0.00 82 1010.9
20260905113524 74 192 0.0 0.0 0.00 0.00 0.00 81 1010.9
20260905113025 74 192 0.0 0.0 0.00 0.00 0.00 81 1010.9
20260905112523 74 192 0.0 0.0 0.00 0.00 0.00 81 1010.9
20260905112025 74 192 0.0 0.0 0.00 0.00 0.00 81 1010.9
20260905111522 74 192 0.0 0.0 0.00 0.00 0.00 80 1011.0
20260905111021 74 192 0.0 0.0 0.00 0.00 0.00 80 1010.9
20260905110520 74 192 0.0 0.0 0.00 0.00 0.00 80 1010.9
20260905110020 74 192 0.0 0.0 0.00 0.00 0.00 80 1010.8
20260905105517 74 192 0.0 0.0 0.00 0.00 0.00 80 1010.8
20260905105018 74 192 0.0 0.0 0.00 0.00 0.00 80 1010.7
20260905104519 74 192 0.0 0.0 0.00 0.00 0.00 80 1010.7
20260905104017 75 192 0.0 0.0 0.00 0.00 0.00 80 1010.6
20260905103517 75 192 0.0 1.0 0.00 0.00 0.00 79 1010.7
20260905103018 75 192 0.0 1.0 0.00 0.00 0.00 79 1010.7
20260905102517 75 192 0.0 0.0 0.00 0.00 0.00 79 1010.7
20260905102016 75 192 0.0 0.0 0.00 0.00 0.00 79 1010.6
20260905101522 75 192 0.0 0.0 0.00 0.00 0.00 79 1010.6
20260905101018 75 192 0.0 0.0 0.00 0.00 0.00 79 1010.6
20260905100515 75 192 0.0 0.0 0.00 0.00 0.00 77 1010.6
20260905100014 76 192 0.0 0.0 0.00 0.00 0.00 77 1010.5
20260905095513 76 192 0.0 0.0 0.00 0.00 0.00 76 1010.5
20260905095016 76 192 0.0 0.0 0.00 0.00 0.00 76 1010.5
20260905094511 76 192 0.0 0.0 0.00 0.00 0.00 76 1010.5
20260905094011 76 192 0.0 0.0 0.00 0.00 0.00 75 1010.5
20260905093514 77 192 0.0 0.0 0.00 0.00 0.00 76 1010.5
20260905093011 77 192 0.0 0.0 0.00 0.00 0.00 76 1010.5
20260905092511 77 192 0.0 0.0 0.00 0.00 0.00 76 1010.5
20260905092010 77 192 0.0 0.0 0.00 0.00 0.00 75 1010.5
20260905091509 77 192 0.0 0.0 0.00 0.00 0.00 75 1010.4
20260905091010 77 192 0.0 0.0 0.00 0.00 0.00 75 1010.5
20260905090509 77 192 0.0 0.0 0.00 0.00 0.00 75 1010.5
20260905090008 77 192 0.0 0.0 0.00 0.00 0.00 74 1010.4
20260905085508 77 192 0.0 0.0 0.00 0.00 0.00 74 1010.4
20260905085008 78 192 0.0 2.0 0.00 0.00 0.00 73 1010.3
20260905084510 78 192 0.0 2.0 0.00 0.00 0.00 72 1010.2
20260905084007 78 192 0.0 2.0 0.00 0.00 0.00 71 1010.2
20260905083512 78 192 0.0 3.0 0.00 0.00 0.00 71 1010.2
20260905083008 78 192 0.0 3.0 0.00 0.00 0.00 72 1010.2
20260905082609 78 192 0.0 2.0 0.00 0.00 0.00 72 1010.3
20260905082009 78 192 1.0 4.0 0.00 0.00 0.00 73 1010.3
20260905081513 77 191 0.0 4.0 0.00 0.00 0.00 73 1010.3
20260905081007 77 186 0.0 2.0 0.00 0.00 0.00 73 1010.3
20260905080507 78 163 0.0 2.0 0.00 0.00 0.00 72 1010.3
20260905080007 78 159 0.0 2.0 0.00 0.00 0.00 72 1010.3
20260905075504 78 158 0.0 2.0 0.00 0.00 0.00 71 1010.3
20260905075003 79 157 0.0 0.0 0.00 0.00 0.00 71 1010.3
20260905074503 79 157 0.0 0.0 0.00 0.00 0.00 70 1010.3
20260905074003 79 157 0.0 0.0 0.00 0.00 0.00 70 1010.4
20260905073502 79 157 0.0 0.0 0.00 0.00 0.00 71 1010.5
20260905073003 79 157 0.0 0.0 0.00 0.00 0.00 71 1010.5
20260905072502 78 157 0.0 0.0 0.00 0.00 0.00 71 1010.5
20260905072001 78 157 0.0 0.0 0.00 0.00 0.00 71 1010.5
20260905071501 79 157 0.0 0.0 0.00 0.00 0.00 71 1010.5
20260905071059 79 157 0.0 0.0 0.00 0.00 0.00 70 1010.5
20260905070559 79 157 0.0 0.0 0.00 0.00 0.00 70 1010.6
20260905070110 79 157 0.0 0.0 0.00 0.00 0.00 70 1010.7
20260905065603 79 157 0.0 0.0 0.00 0.00 0.00 70 1010.6
20260905065100 79 157 0.0 0.0 0.00 0.00 0.00 70 1010.7
20260905064558 79 157 0.0 0.0 0.00 0.00 0.00 70 1010.6
20260905064058 79 157 0.0 0.0 0.00 0.00 0.00 70 1010.7
20260905063557 79 157 0.0 5.0 0.00 0.00 0.00 69 1010.7
20260905062556 79 157 2.0 5.0 0.00 0.00 0.00 69 1010.7
20260905062056 80 157 2.0 5.0 0.00 0.00 0.00 68 1010.7
20260905061612 80 157 2.0 5.0 0.00 0.00 0.00 68 1010.7
20260905061054 80 157 1.0 2.0 0.00 0.00 0.00 67 1010.8
20260905060553 81 157 0.0 5.0 0.00 0.00 0.00 67 1010.8
20260905060055 81 157 1.0 5.0 0.00 0.00 0.00 66 1010.7
20260905055552 81 157 1.0 3.0 0.00 0.00 0.00 66 1010.7
20260905055051 81 153 0.0 5.0 0.00 0.00 0.00 66 1010.8
20260905054558 81 152 2.0 5.0 0.00 0.00 0.00 66 1010.7
20260905054051 81 151 2.0 4.0 0.00 0.00 0.00 66 1010.7
20260905053550 81 150 1.0 3.0 0.00 0.00 0.00 66 1010.7
20260905052550 81 150 2.0 3.0 0.00 0.00 0.00 65 1010.6
20260905052054 81 150 2.0 3.0 0.00 0.00 0.00 65 1010.7
20260905051550 81 150 2.0 3.0 0.00 0.00 0.00 65 1010.6
20260905051050 82 150 2.0 3.0 0.00 0.00 0.00 65 1010.7
20260905050548 82 151 0.0 2.0 0.00 0.00 0.00 64 1010.6
20260905050049 82 151 1.0 2.0 0.00 0.00 0.00 64 1010.7
20260905045546 82 151 1.0 2.0 0.00 0.00 0.00 63 1010.7
20260905045049 82 151 0.0 2.0 0.00 0.00 0.00 63 1010.7
20260905044547 82 150 0.0 3.0 0.00 0.00 0.00 63 1010.7
20260905044046 83 151 1.0 3.0 0.00 0.00 0.00 62 1010.7
20260905043546 83 150 2.0 5.0 0.00 0.00 0.00 61 1010.7
20260905042545 83 151 2.0 5.0 0.00 0.00 0.00 61 1010.7
20260905042046 83 151 2.0 6.0 0.00 0.00 0.00 61 1010.6
20260905041554 83 150 3.0 6.0 0.00 0.00 0.00 60 1010.6
20260905041044 83 147 3.0 7.0 0.00 0.00 0.00 60 1010.6
20260905040545 84 144 3.0 7.0 0.00 0.00 0.00 60 1010.6
20260905040050 84 138 3.0 5.0 0.00 0.00 0.00 59 1010.5
20260905035545 84 138 3.0 7.0 0.00 0.00 0.00 59 1010.5
20260905035045 84 136 3.0 5.0 0.00 0.00 0.00 58 1010.5
20260905034547 84 136 3.0 5.0 0.00 0.00 0.00 58 1010.6
20260905034044 84 140 3.0 5.0 0.00 0.00 0.00 58 1010.5
20260905033544 85 155 3.0 5.0 0.00 0.00 0.00 57 1010.5
20260905032545 85 158 3.0 6.0 0.00 0.00 0.00 57 1010.5
20260905032044 85 158 3.0 6.0 0.00 0.00 0.00 56 1010.5
20260905031548 85 159 4.0 7.0 0.00 0.00 0.00 56 1010.5
20260905031043 86 159 4.0 8.0 0.00 0.00 0.00 56 1010.5
20260905030543 85 153 5.0 8.0 0.00 0.00 0.00 56 1010.5
20260905030047 85 153 4.0 7.0 0.00 0.00 0.00 56 1010.5
20260905025544 85 148 3.0 7.0 0.00 0.00 0.00 56 1010.4
20260905025045 85 153 3.0 7.0 0.00 0.00 0.00 56 1010.3
20260905024543 85 159 4.0 7.0 0.00 0.00 0.00 56 1010.2
20260905024042 85 160 3.0 5.0 0.00 0.00 0.00 56 1010.2
20260905023542 85 163 3.0 5.0 0.00 0.00 0.00 55 1010.1
20260905022542 85 163 2.0 4.0 0.00 0.00 0.00 55 1009.9
20260905022043 85 163 1.0 5.0 0.00 0.00 0.00 55 1009.9
20260905021542 86 163 3.0 5.0 0.00 0.00 0.00 55 1009.8
20260905021046 86 164 3.0 5.0 0.00 0.00 0.00 54 1009.7
20260905020542 86 165 2.0 4.0 0.00 0.00 0.00 55 1009.7
20260905020043 86 165 2.0 3.0 0.00 0.00 0.00 54 1009.5
20260905015542 86 165 3.0 5.0 0.00 0.00 0.00 53 1009.5
20260905015041 86 165 3.0 5.0 0.00 0.00 0.00 52 1009.4
20260905014541 87 165 2.0 5.0 0.00 0.00 0.00 52 1009.3
20260905014043 87 165 2.0 5.0 0.00 0.00 0.00 51 1009.1
20260905013542 88 165 2.0 3.0 0.00 0.00 0.00 50 1009.1
20260905012541 88 165 1.0 3.0 0.00 0.00 0.00 50 1009.0
20260905012041 88 165 1.0 3.0 0.00 0.00 0.00 49 1009.0
20260905011542 88 165 1.0 3.0 0.00 0.00 0.00 49 1008.9
20260905011041 89 168 1.0 3.0 0.00 0.00 0.00 49 1008.9
20260905010541 89 168 1.0 2.0 0.00 0.00 0.00 48 1008.8
20260905010042 89 168 1.0 3.0 0.00 0.00 0.00 48 1008.8
20260905005543 90 168 1.0 3.0 0.00 0.00 0.00 47 1008.8
20260905005041 90 168 2.0 6.0 0.00 0.00 0.00 46 1008.8
20260905004540 91 168 3.0 6.0 0.00 0.00 0.00 45 1008.7
20260905004040 92 173 3.0 5.0 0.00 0.00 0.00 44 1008.7
20260905003540 93 174 2.0 4.0 0.00 0.00 0.00 43 1008.7
20260905002540 93 158 2.0 5.0 0.00 0.00 0.00 43 1008.7
20260905002040 93 157 2.0 7.0 0.00 0.00 0.00 42 1008.7
20260905001541 94 134 4.0 7.0 0.00 0.00 0.00 42 1008.6
20260905001040 94 131 4.0 8.0 0.00 0.00 0.00 41 1008.5
20260905000541 95 138 3.0 8.0 0.00 0.00 0.00 40 1008.5
20260905000041 95 159 3.0 7.0 0.00 0.00 0.00 39 1008.6
20260904235539 95 140 4.0 8.0 0.00 0.00 0.00 39 1008.6
20260904235040 95 160 4.0 8.0 0.00 0.00 0.00 39 1008.6
20260904234547 95 180 3.0 9.0 0.00 0.00 0.00 39 1008.6
20260904234040 96 161 5.0 13.0 0.00 0.00 0.00 39 1008.6
20260904233540 96 129 4.0 8.0 0.00 0.00 0.00 39 1008.6
20260904232540 96 155 3.0 8.0 0.00 0.00 0.00 39 1008.5
20260904232040 96 160 5.0 8.0 0.00 0.00 0.00 39 1008.5
20260904231539 96 143 3.0 10.0 0.00 0.00 0.00 39 1008.6
20260904231039 96 125 6.0 11.0 0.00 0.00 0.00 38 1008.6
20260904230542 96 134 8.0 11.0 0.00 0.00 0.00 38 1008.6
20260904230040 96 162 7.0 12.0 0.00 0.00 0.00 38 1008.6
20260904225540 96 198 9.0 12.0 0.00 0.00 0.00 38 1008.6
20260904225038 97 182 5.0 8.0 0.00 0.00 0.00 37 1008.6
20260904224549 97 212 3.0 5.0 0.00 0.00 0.00 37 1008.7
20260904224039 96 241 1.0 7.0 0.00 0.00 0.00 38 1008.6
20260904223537 96 165 6.0 10.0 0.00 0.00 0.00 38 1008.8
20260904222537 97 176 4.0 8.0 0.00 0.00 0.00 37 1008.8
20260904222037 98 222 3.0 10.0 0.00 0.00 0.00 37 1008.8
20260904221538 98 202 4.0 12.0 0.00 0.00 0.00 37 1008.9
20260904221037 98 177 9.0 15.0 0.00 0.00 0.00 37 1008.8
20260904220535 98 169 7.0 15.0 0.00 0.00 0.00 37 1008.9
20260904220036 97 164 7.0 14.0 0.00 0.00 0.00 37 1008.9
20260904215535 98 165 6.0 14.0 0.00 0.00 0.00 37 1009.0
20260904215034 98 186 9.0 12.0 0.00 0.00 0.00 36 1009.0
20260904214535 98 213 4.0 10.0 0.00 0.00 0.00 36 1009.0
20260904214035 98 95 3.0 10.0 0.00 0.00 0.00 36 1009.0
20260904213533 98 187 2.0 12.0 0.00 0.00 0.00 35 1009.1
20260904212534 98 166 5.0 12.0 0.00 0.00 0.00 35 1009.2
20260904212035 99 147 8.0 12.0 0.00 0.00 0.00 35 1009.2
20260904211533 98 193 4.0 8.0 0.00 0.00 0.00 35 1009.2
20260904211034 98 194 3.0 9.0 0.00 0.00 0.00 35 1009.3
20260904210531 97 143 3.0 9.0 0.00 0.00 0.00 36 1009.3
20260904210032 97 78 2.0 14.0 0.00 0.00 0.00 35 1009.3
20260904205531 97 166 4.0 14.0 0.00 0.00 0.00 36 1009.4
20260904205030 97 177 4.0 8.0 0.00 0.00 0.00 35 1009.4